| time (UTC) | temp F | wind direction | speed MPH | gust MPH | rain 1hr in | rain 24hr in | rain mn in | humidity % | barometer mb |
| 20260504081048 | 48 | 237 | 2.0 | 4.0 | 0.00 | 0.00 | 0.00 | 56 | 1015.3 |
| 20260504045047 | 51 | 246 | 0.0 | 2.0 | 0.00 | 0.00 | 0.00 | 49 | 1015.8 |
| 20260504044048 | 51 | 172 | 0.0 | 2.0 | 0.00 | 0.00 | 0.00 | 48 | 1015.7 |
| 20260504043047 | 51 | 249 | 0.0 | 2.0 | 0.00 | 0.00 | 0.00 | 43 | 1015.6 |
| 20260504042047 | 51 | 180 | 0.0 | 2.0 | 0.00 | 0.00 | 0.00 | 46 | 1015.6 |
| 20260504041048 | 51 | 180 | 0.0 | 1.0 | 0.00 | 0.00 | 0.00 | 46 | 1015.6 |
| 20260504040047 | 51 | 180 | 0.0 | 1.0 | 0.00 | 0.00 | 0.00 | 45 | 1015.6 |
| 20260504035049 | 51 | 282 | 1.0 | 2.0 | 0.00 | 0.00 | 0.00 | 47 | 1015.6 |
| 20260504034047 | 51 | 180 | 0.0 | 2.0 | 0.00 | 0.00 | 0.00 | 45 | 1015.6 |
| 20260504033048 | 51 | 135 | 1.0 | 2.0 | 0.00 | 0.00 | 0.00 | 47 | 1015.6 |
| 20260504032047 | 51 | 140 | 1.0 | 2.0 | 0.00 | 0.00 | 0.00 | 44 | 1015.6 |
| 20260504031047 | 51 | 180 | 0.0 | 2.0 | 0.00 | 0.00 | 0.00 | 44 | 1015.6 |
| 20260504030047 | 51 | 293 | 0.0 | 2.0 | 0.00 | 0.00 | 0.00 | 41 | 1015.6 |
| 20260504025047 | 51 | 311 | 1.0 | 3.0 | 0.00 | 0.00 | 0.00 | 41 | 1015.6 |
| 20260504024049 | 51 | 290 | 1.0 | 2.0 | 0.00 | 0.00 | 0.00 | 42 | 1015.5 |
| 20260504023048 | 51 | 302 | 1.0 | 2.0 | 0.00 | 0.00 | 0.00 | 45 | 1015.4 |
| 20260504022048 | 51 | 317 | 0.0 | 1.0 | 0.00 | 0.00 | 0.00 | 43 | 1015.5 |
| 20260504021047 | 51 | 306 | 1.0 | 2.0 | 0.00 | 0.00 | 0.00 | 43 | 1015.4 |
| 20260504020047 | 51 | 241 | 0.0 | 2.0 | 0.00 | 0.00 | 0.00 | 41 | 1015.2 |
| 20260504015047 | 51 | 54 | 0.0 | 2.0 | 0.00 | 0.00 | 0.00 | 40 | 1015.1 |
| 20260504014047 | 52 | 34 | 1.0 | 2.0 | 0.00 | 0.00 | 0.00 | 37 | 1015.0 |
| 20260504013047 | 51 | 306 | 1.0 | 4.0 | 0.00 | 0.00 | 0.00 | 40 | 1014.9 |
| 20260504012047 | 51 | 348 | 1.0 | 2.0 | 0.00 | 0.00 | 0.00 | 39 | 1014.7 |
| 20260504011047 | 51 | 313 | 1.0 | 2.0 | 0.00 | 0.00 | 0.00 | 41 | 1014.7 |
| 20260504010048 | 52 | 330 | 0.0 | 1.0 | 0.00 | 0.00 | 0.00 | 39 | 1014.5 |
| 20260504005048 | 53 | 332 | 0.0 | 3.0 | 0.00 | 0.00 | 0.00 | 35 | 1014.5 |
| 20260504004047 | 54 | 44 | 2.0 | 3.0 | 0.00 | 0.00 | 0.00 | 33 | 1014.5 |
| 20260504003050 | 54 | 322 | 0.0 | 2.0 | 0.00 | 0.00 | 0.00 | 35 | 1014.4 |
| 20260504002048 | 55 | 50 | 0.0 | 2.0 | 0.00 | 0.00 | 0.00 | 34 | 1014.4 |
| 20260504001048 | 56 | 357 | 0.0 | 4.0 | 0.00 | 0.00 | 0.00 | 32 | 1014.3 |
| 20260504000047 | 57 | 39 | 2.0 | 5.0 | 0.00 | 0.00 | 0.00 | 30 | 1014.3 |
| 20260503235048 | 59 | 343 | 0.0 | 2.0 | 0.00 | 0.00 | 0.00 | 27 | 1014.2 |
| 20260503234047 | 60 | 338 | 0.0 | 3.0 | 0.00 | 0.00 | 0.00 | 28 | 1014.2 |
| 20260503233047 | 60 | 310 | 1.0 | 3.0 | 0.00 | 0.00 | 0.00 | 25 | 1014.2 |
| 20260503232047 | 62 | 298 | 1.0 | 3.0 | 0.00 | 0.00 | 0.00 | 25 | 1014.2 |
| 20260503231047 | 64 | 9 | 1.0 | 2.0 | 0.00 | 0.00 | 0.00 | 23 | 1014.1 |
| 20260503230048 | 64 | 356 | 2.0 | 4.0 | 0.00 | 0.00 | 0.00 | 23 | 1014.1 |
| 20260503225047 | 65 | 314 | 1.0 | 4.0 | 0.00 | 0.00 | 0.00 | 21 | 1014.1 |
| 20260503224047 | 63 | 308 | 2.0 | 7.0 | 0.00 | 0.00 | 0.00 | 23 | 1014.1 |
| 20260503223049 | 65 | 293 | 2.0 | 8.0 | 0.00 | 0.00 | 0.00 | 23 | 1014.0 |
| 20260503222047 | 67 | 201 | 3.0 | 7.0 | 0.00 | 0.00 | 0.00 | 20 | 1014.0 |
| 20260503221047 | 65 | 197 | 2.0 | 7.0 | 0.00 | 0.00 | 0.00 | 23 | 1014.0 |
| 20260503220047 | 66 | 197 | 2.0 | 6.0 | 0.00 | 0.00 | 0.00 | 20 | 1014.1 |
| 20260503215048 | 67 | 306 | 2.0 | 4.0 | 0.00 | 0.00 | 0.00 | 22 | 1014.1 |
| 20260503214048 | 64 | 345 | 3.0 | 7.0 | 0.00 | 0.00 | 0.00 | 22 | 1014.2 |
| 20260503213047 | 63 | 314 | 4.0 | 9.0 | 0.00 | 0.00 | 0.00 | 23 | 1014.1 |
| 20260503212047 | 66 | 196 | 4.0 | 10.0 | 0.00 | 0.00 | 0.00 | 21 | 1014.2 |
| 20260503211047 | 65 | 235 | 3.0 | 10.0 | 0.00 | 0.00 | 0.00 | 22 | 1014.2 |
| 20260503210047 | 64 | 316 | 4.0 | 10.0 | 0.00 | 0.00 | 0.00 | 23 | 1014.3 |
| 20260503205048 | 64 | 284 | 2.0 | 8.0 | 0.00 | 0.00 | 0.00 | 24 | 1014.4 |
| 20260503204047 | 62 | 300 | 4.0 | 8.0 | 0.00 | 0.00 | 0.00 | 22 | 1014.5 |
| 20260503203047 | 65 | 18 | 1.0 | 9.0 | 0.00 | 0.00 | 0.00 | 22 | 1014.5 |
| 20260503202047 | 63 | 268 | 4.0 | 7.0 | 0.00 | 0.00 | 0.00 | 22 | 1014.7 |
| 20260503201050 | 64 | 194 | 5.0 | 9.0 | 0.00 | 0.00 | 0.00 | 23 | 1014.8 |
| 20260503200047 | 64 | 278 | 4.0 | 6.0 | 0.00 | 0.00 | 0.00 | 26 | 1014.9 |
| 20260503195047 | 61 | 52 | 4.0 | 10.0 | 0.00 | 0.00 | 0.00 | 25 | 1015.1 |
| 20260503194048 | 61 | 286 | 4.0 | 9.0 | 0.00 | 0.00 | 0.00 | 24 | 1015.3 |
| 20260503193047 | 61 | 303 | 5.0 | 7.0 | 0.00 | 0.00 | 0.00 | 24 | 1015.3 |
| 20260503192047 | 61 | 288 | 2.0 | 9.0 | 0.00 | 0.00 | 0.00 | 26 | 1015.2 |
| 20260503191048 | 62 | 227 | 3.0 | 14.0 | 0.00 | 0.00 | 0.00 | 25 | 1015.6 |
| 20260503190048 | 60 | 290 | 4.0 | 11.0 | 0.00 | 0.00 | 0.00 | 25 | 1015.7 |
| 20260503185047 | 60 | 299 | 4.0 | 9.0 | 0.00 | 0.00 | 0.00 | 30 | 1015.9 |
| 20260503184046 | 60 | 287 | 4.0 | 9.0 | 0.00 | 0.00 | 0.00 | 30 | 1016.1 |
| 20260503183048 | 60 | 195 | 3.0 | 10.0 | 0.00 | 0.00 | 0.00 | 28 | 1016.1 |
| 20260503182047 | 58 | 299 | 5.0 | 11.0 | 0.00 | 0.00 | 0.00 | 29 | 1016.3 |
| 20260503181049 | 0 | 0.0 | 0.0 | 0.00 | 0.00 | 0.00 | 1016.3 | ||
| 20260503180048 | 0 | 0.0 | 0.0 | 0.00 | 0.00 | 0.00 | 1016.4 | ||
| 20260503175049 | 0 | 0.0 | 0.0 | 0.00 | 0.00 | 0.00 | 1016.3 | ||
| 20260503174049 | 0 | 0.0 | 0.0 | 0.00 | 0.00 | 0.00 | 1016.4 | ||
| 20260503173048 | 0 | 0.0 | 0.0 | 0.00 | 0.00 | 0.00 | 1016.5 | ||
| 20260503172047 | 0 | 0.0 | 0.0 | 0.00 | 0.00 | 0.00 | 1016.7 | ||
| 20260503171047 | 0 | 0.0 | 0.0 | 0.00 | 0.00 | 0.00 | 1016.8 | ||
| 20260503131048 | 46 | 306 | 2.0 | 6.0 | 0.00 | 0.00 | 0.00 | 45 | 1017.9 |